Flag for U.S.A. Weather past 2 weeks in Birmingham, Alabama, U.S.A.

Now
70 °F

Passing clouds.


Feels Like: 68 °F
Forecast: 68 / 82 °F
Wind: 6 mph from South

Location: Birmingham International Airport

Current Time: May 26, 2015 at 9:26:17 PM

Latest Report: May 26, 2015 at 8:53 PM


Visibility: 10 mi

Pressure: 30.15 "Hg

Humidity: 87%

Dew point: 66 °F

Location of BirminghamLocation

Historic Weather in Birmingham — Graph

°F

Birmingham temperature yesterday

Maximum temperature yesterday: 78 °F (at 11:53 AM)
Minimum temperature yesterday: 68 °F (at 9:53 PM)
Average temperature yesterday: 72 °F

Past Weeks' High & Low Weather Summary

 TemperatureHumidityPressure
High88 °F (May 14, 2:53 PM)97% (May 17, 6:53 AM)30.33 "Hg (May 17, 6:53 AM)
Low49 °F (May 22, 2:53 AM)21% (May 14, 2:53 PM)29.91 "Hg (May 20, 5:53 PM)
Average73 °F71%30.16 "Hg
* Reported May 11 7:53 PM — May 26 7:53 PM, Birmingham, Weather by CustomWeather, © 2015

Note: Actual official high and low records may vary slightly from our data, if they occured in-between our weather recording intervals... More about our weather records

Advertising

Birmingham weather history for previous 24 hours

 ConditionsComfort  
Time TempWeatherWind HumidityBarometerVisibility
7:53 PM
Tue, May 26
71 °FPartly sunny.7 mph84%30.15 "Hg10 mi
6:53 PM73 °FBroken clouds.13 mph79%30.13 "Hg10 mi
5:53 PM75 °FPartly sunny.9 mph76%30.11 "Hg10 mi
4:53 PM77 °FMore clouds than sun.12 mph71%30.13 "Hg10 mi
3:53 PM76 °FOvercast.10 mph80%30.10 "Hg10 mi
2:53 PM75 °FOvercast.13 mph82%30.08 "Hg10 mi
1:53 PM75 °FMostly cloudy.8 mph85%30.10 "Hg10 mi
12:53 PM76 °FLight rain. Cloudy.7 mph85%30.11 "Hg10 mi
11:53 AM77 °FMostly cloudy.10 mph79%30.14 "Hg10 mi
10:53 AM77 °FCloudy.9 mph79%30.16 "Hg10 mi
9:53 AM75 °FMostly cloudy.13 mph82%30.17 "Hg10 mi
8:53 AM74 °FBroken clouds.12 mph85%30.16 "Hg10 mi
7:53 AM72 °FLow clouds.10 mph91%30.16 "Hg10 mi
6:53 AM71 °FOvercast.8 mph93%30.15 "Hg10 mi
5:59 AM70 °FPassing clouds.8 mph93%30.15 "Hg10 mi
5:01 AM70 °FPassing clouds.8 mph90%30.14 "Hg10 mi
3:53 AM70 °FPassing clouds.6 mph87%30.11 "Hg10 mi
2:53 AM69 °FClear.7 mph90%30.11 "Hg10 mi
1:53 AM68 °FPassing clouds.6 mph90%30.13 "Hg10 mi
12:53 AM67 °FPassing clouds.8 mph93%30.14 "Hg10 mi
11:53 PM
Mon, May 25
68 °FPassing clouds.3 mph93%30.16 "Hg10 mi
10:53 PM68 °FPassing clouds.No wind90%30.16 "Hg10 mi
9:53 PM68 °FPassing clouds.3 mph90%30.14 "Hg10 mi
Weather by CustomWeather, © 2015

See weather overviewHow to use our weather pages